, MS

(GMT )
West Delta

Weather History for KDLP - March, 2014

Change the Weather History Date:

Saturday, March 1, 2014

  Actual Average Record
Temperature  
Mean Temperature 66 °F -  
Max Temperature 71 °F - - ()
Min Temperature 62 °F - - ()
Cooling Degree Days 2    
Growing Degree Days 16 (Base 50)    
Moisture  
Dew Point 62 °F    
Average Humidity 85    
Maximum Humidity 100    
Minimum Humidity 73    
Precipitation  
Precipitation 0.00 in - - ()
Sea Level Pressure  
Sea Level Pressure 30.12 in    
Wind  
Wind Speed 13 mph (SSE)    
Max Wind Speed 23 mph    
Max Gust Speed 22 mph    
Visibility 10 miles    
Events      
Averages and records for this station are not official NWS values.
T = Trace of Precipitation, MM = Missing Value Source: NWS Daily Summary

Daily Weather History Graph

Daily Weather History Graph

Search for Another Location

Airport or City:

Trip Planner

Search our weather history database for the weather conditions in past years. The results will help you decide how hot, cold, wet, or windy it might be!

Date:

Astronomy

Mar. 01, 2014 Rise Set
Actual Time 6:23 AM CST 5:57 PM CST
Civil Twilight 5:59 AM CST 6:21 PM CST
Nautical Twilight 5:32 AM CST 6:49 PM CST
Astronomical Twilight 5:04 AM CST 7:16 PM CST
Moon 6:21 AM CST (3/1) 6:38 PM CST (3/1)
Length of Visible Light 12h 22m
Length of Day
11h 34m
New Moon, 0% of the Moon is Illuminated
Mar 1
New Moon
Mar 8
First Quarter
Mar 16
Full
Mar 23
Last Quarter
Mar 30
New

Hourly Weather History & Observations

Time (CST) Temp. Dew Point Humidity Pressure Visibility Wind Dir Wind Speed Gust Speed Precip Events Conditions
12:15 AM 62.6 °F 55.4 °F 77% 30.07 in 10.0 mi SSE 9.2 mph 17.3 mph N/A   Overcast
12:35 AM 62.6 °F 55.4 °F 77% 30.07 in 10.0 mi SSE 10.4 mph - N/A   Overcast
12:55 AM 62.6 °F 55.4 °F 77% 30.08 in 10.0 mi SSE 11.5 mph - N/A   Overcast
1:15 AM 62.6 °F 55.4 °F 77% 30.08 in 10.0 mi SSE 11.5 mph - N/A   Overcast
1:35 AM 62.6 °F 55.4 °F 77% 30.08 in 10.0 mi Variable 6.9 mph 15.0 mph N/A   Overcast
1:55 AM 62.6 °F 57.2 °F 82% 30.07 in 10.0 mi SSE 9.2 mph 15.0 mph N/A   Overcast
2:15 AM 62.6 °F 57.2 °F 82% 30.07 in 10.0 mi SSE 8.1 mph 15.0 mph N/A   Overcast
2:35 AM 62.6 °F 57.2 °F 82% 30.06 in 10.0 mi SSE 12.7 mph - N/A   Overcast
2:55 AM 62.6 °F 57.2 °F 82% 30.05 in 10.0 mi SSE 13.8 mph - N/A   Overcast
3:15 AM 64.4 °F 57.2 °F 77% 30.05 in 10.0 mi SSE 19.6 mph - N/A   Overcast
3:35 AM 64.4 °F 57.2 °F 77% 30.05 in 10.0 mi South 20.7 mph - N/A   Overcast
3:55 AM 66.2 °F 57.2 °F 73% 30.06 in 10.0 mi South 20.7 mph - N/A   Overcast
4:15 AM 66.2 °F 57.2 °F 73% 30.06 in 10.0 mi South 23.0 mph - N/A   Overcast
4:35 AM 66.2 °F 59.0 °F 78% 30.06 in 10.0 mi SSE 19.6 mph - N/A   Overcast
4:55 AM 66.2 °F 59.0 °F 78% 30.06 in 10.0 mi South 21.9 mph - N/A   Overcast
5:15 AM 66.2 °F 59.0 °F 78% 30.07 in 10.0 mi South 23.0 mph - N/A   Overcast
5:35 AM 66.2 °F 59.0 °F 78% 30.07 in 10.0 mi South 21.9 mph - N/A   Overcast
5:55 AM 66.2 °F 59.0 °F 78% 30.08 in 10.0 mi South 17.3 mph - N/A   Overcast
6:15 AM 66.2 °F 59.0 °F 78% 30.09 in 10.0 mi South 19.6 mph - N/A   Overcast
6:35 AM 66.2 °F 59.0 °F 78% 30.10 in 10.0 mi South 17.3 mph - N/A   Overcast
6:55 AM 66.2 °F 60.8 °F 83% 30.11 in 10.0 mi South 13.8 mph 20.7 mph N/A   Overcast
7:15 AM 66.2 °F 60.8 °F 83% 30.12 in 10.0 mi South 13.8 mph 21.9 mph N/A   Overcast
7:35 AM 66.2 °F 60.8 °F 83% 30.12 in 10.0 mi South 15.0 mph - N/A   Mostly Cloudy
7:55 AM 66.2 °F 60.8 °F 83% 30.13 in 10.0 mi South 16.1 mph - N/A   Overcast
8:15 AM 66.2 °F 60.8 °F 83% 30.14 in 10.0 mi South 16.1 mph - N/A   Overcast
8:35 AM 66.2 °F 60.8 °F 83% 30.15 in 10.0 mi South 15.0 mph - N/A   Mostly Cloudy
8:55 AM 66.2 °F 60.8 °F 83% 30.16 in 10.0 mi SSE 11.5 mph - N/A   Mostly Cloudy
9:15 AM 66.2 °F 60.8 °F 83% 30.16 in 10.0 mi South 15.0 mph - N/A   Mostly Cloudy
9:35 AM 68.0 °F 60.8 °F 78% 30.17 in 10.0 mi South 12.7 mph - N/A   Mostly Cloudy
9:55 AM 69.8 °F 60.8 °F 73% 30.17 in 10.0 mi South 12.7 mph - N/A   Scattered Clouds
10:15 AM 69.8 °F 60.8 °F 73% 30.18 in 10.0 mi South 13.8 mph - N/A   Partly Cloudy
10:35 AM 69.8 °F 60.8 °F 73% 30.18 in 10.0 mi South 12.7 mph - N/A   Clear
10:55 AM 68.0 °F 60.8 °F 78% 30.17 in 10.0 mi South 11.5 mph - N/A   Clear
11:15 AM 69.8 °F 62.6 °F 78% 30.17 in - South 12.7 mph - N/A   Clear
11:35 AM 68.0 °F 62.6 °F 83% 30.16 in 10.0 mi South 10.4 mph - N/A   Clear
11:55 AM 68.0 °F 62.6 °F 83% 30.16 in 10.0 mi South 11.5 mph - N/A   Clear
12:15 PM 68.0 °F 62.6 °F 83% 30.15 in 10.0 mi South 10.4 mph - N/A   Clear
12:35 PM 68.0 °F 62.6 °F 83% 30.15 in 10.0 mi South 11.5 mph - N/A   Clear
12:55 PM 68.0 °F 62.6 °F 83% 30.14 in 10.0 mi South 11.5 mph - N/A   Clear
1:15 PM 68.0 °F 62.6 °F 83% 30.13 in 10.0 mi South 11.5 mph - N/A   Clear
1:35 PM 69.8 °F 64.4 °F 83% 30.13 in 10.0 mi South 11.5 mph - N/A   Clear
1:55 PM 68.0 °F 62.6 °F 83% 30.12 in 10.0 mi South 10.4 mph - N/A   Clear
2:15 PM 68.0 °F 64.4 °F 88% 30.12 in 10.0 mi South 10.4 mph - N/A   Clear
2:35 PM 68.0 °F 64.4 °F 88% 30.12 in 10.0 mi South 10.4 mph - N/A   Clear
2:55 PM 69.8 °F 64.4 °F 83% 30.11 in 10.0 mi South 9.2 mph - N/A   Clear
3:15 PM 69.8 °F 64.4 °F 83% 30.12 in 10.0 mi South 9.2 mph - N/A   Clear
3:35 PM 69.8 °F 64.4 °F 83% 30.12 in 10.0 mi South 9.2 mph - N/A   Clear
3:55 PM 71.6 °F 64.4 °F 78% 30.12 in 10.0 mi South 9.2 mph - N/A   Clear
4:15 PM 71.6 °F 64.4 °F 78% 30.12 in 10.0 mi SSE 8.1 mph - N/A   Clear
4:35 PM 71.6 °F 64.4 °F 78% 30.12 in 10.0 mi South 10.4 mph - N/A   Partly Cloudy
4:55 PM 69.8 °F 64.4 °F 83% 30.11 in 10.0 mi SE 5.8 mph - N/A   Scattered Clouds
5:15 PM 68.0 °F 64.4 °F 88% 30.12 in 10.0 mi SE 6.9 mph - N/A   Partly Cloudy
5:35 PM 68.0 °F 64.4 °F 88% 30.12 in 10.0 mi North - - N/A   Partly Cloudy
5:55 PM 68.0 °F 64.4 °F 88% 30.12 in 10.0 mi North - - N/A   Scattered Clouds
6:15 PM 68.0 °F 64.4 °F 88% 30.12 in 10.0 mi North - - N/A   Mostly Cloudy
6:35 PM 66.2 °F 64.4 °F 94% 30.13 in 10.0 mi North - - N/A   Mostly Cloudy
6:55 PM 66.2 °F 64.4 °F 94% 30.14 in 10.0 mi North - - N/A   Overcast
7:15 PM 66.2 °F 64.4 °F 94% 30.15 in 10.0 mi North - - N/A   Overcast
7:35 PM 66.2 °F 64.4 °F 94% 30.14 in 10.0 mi North - - N/A   Overcast
7:55 PM 66.2 °F 64.4 °F 94% 30.14 in 10.0 mi North - - N/A   Overcast
8:15 PM 66.2 °F 64.4 °F 94% 30.15 in 10.0 mi North - - N/A   Overcast
8:35 PM 64.4 °F 64.4 °F 100% 30.15 in 10.0 mi North - - N/A   Overcast
8:55 PM 64.4 °F 64.4 °F 100% 30.15 in 10.0 mi ESE 13.8 mph - N/A   Overcast
9:15 PM 64.4 °F 64.4 °F 100% 30.15 in 10.0 mi North - - N/A   Overcast
9:35 PM 64.4 °F 64.4 °F 100% 30.15 in 10.0 mi North - - N/A   Overcast
9:55 PM 64.4 °F 64.4 °F 100% 30.14 in 10.0 mi North - - N/A   Overcast
10:15 PM 64.4 °F 64.4 °F 100% 30.14 in 10.0 mi SE 12.7 mph 18.4 mph N/A   Overcast
10:35 PM 64.4 °F 64.4 °F 100% 30.14 in 10.0 mi North - - N/A   Overcast
10:55 PM 64.4 °F 64.4 °F 100% 30.14 in 10.0 mi SSE 8.1 mph 16.1 mph N/A   Overcast
11:15 PM 64.4 °F 64.4 °F 100% 30.13 in 10.0 mi SSE 8.1 mph 13.8 mph N/A   Overcast
11:35 PM 64.4 °F 64.4 °F 100% 30.13 in 10.0 mi SSE 8.1 mph 16.1 mph N/A   Overcast
11:55 PM 64.4 °F 64.4 °F 100% 30.13 in 10.0 mi SSE 8.1 mph - N/A   Overcast